Terminal Aerodrome Forecast
Issued by NWS

Home | Current Version | Previous Version | Text Only | Print | Product List | Glossary Off
Versions: 1 2 3 4 5 6 7 8 9 10 11 12 13 14 15 16

000
FTUS42 KMHX 021900 AAA
TAFOAJ
TAF AMD
KOAJ 021922Z 0219/0318 17010G15KT P6SM SCT060
     FM030900 21003KT 3SM BR SCT005
     FM031300 25008KT P6SM SCT050
      AMD LTD TO CLD VIS AND WIND=

USA.gov is the U.S. government's official web portal to all federal, state and local government web resources and services.